Location: Newark
(51.5306°N, 0.2243°W)
Time: 05:34:21
(UTC+00:00)

Envisat - Pass Details

Date: 02 October 2019
Orbit: 764 x 766 km, 98.1° (Epoch: 16 October)

Event Time Altitude Azimuth Distance (km) Brightness Sun altitude
Rises 18:38:49 0° 186° (S) 3,221 6.2 -10.4°
Reaches altitude 10° 18:41:15 10° 194° (SSW) 2,299 5.6 -10.8°
Maximum altitude 18:45:59 39° 263° (W) 1,134 4.6 -11.5°
Drops below altitude 10° 18:50:46 10° 333° (NNW) 2,315 6.0 -12.3°
Sets 18:53:14 0° 341° (NNW) 3,245 6.7 -12.6°
